KE5HAM Weather Reports


time (UTC)temp
F
wind
direction
speed
knots
gust
knots
rain 1hr
in
rain 24hr
in
rain mn
in
humidity
%
barometer
mb
20260504130504 63 0 0.0 0.0 0.00 0.00 0.00 88 1015.1
20260504110504 60 0 0.0 0.0 0.00 0.00 0.00 86 1014.5
20260504100504 60 0 0.0 0.0 0.00 0.00 0.00 86 1014.9
20260504082004 60 0 0.0 0.0 0.00 0.00 0.00 84 1015.6
20260504081504 60 0 0.0 0.0 0.00 0.00 0.00 84 1015.4
20260504081004 60 0 0.0 0.0 0.00 0.00 0.00 84 1015.3
20260504080504 60 0 0.0 0.0 0.00 0.00 0.00 84 1015.5
20260504050503 62 0 0.0 0.0 0.00 0.00 0.00 81 1017.6
20260504050003 62 0 0.0 0.0 0.00 0.00 0.00 81 1017.7
20260504045503 62 0 0.0 0.0 0.00 0.00 0.00 81 1017.9
20260504045004 62 0 0.0 0.0 0.00 0.00 0.00 81 1018.0
20260504044504 62 0 0.0 0.0 0.00 0.00 0.00 81 1018.1
20260504044003 62 0 0.0 0.0 0.00 0.00 0.00 81 1018.0
20260504043004 62 0 0.0 0.0 0.00 0.00 0.00 80 1018.0
20260504042504 62 0 0.0 0.0 0.00 0.00 0.00 80 1018.0
20260504041503 63 0 0.0 0.0 0.00 0.00 0.00 79 1018.0
20260504041004 63 0 0.0 0.0 0.00 0.00 0.00 79 1018.0
20260504040503 63 0 0.0 0.0 0.00 0.00 0.00 78 1018.0
20260504040004 63 0 0.0 0.0 0.00 0.00 0.00 78 1018.0
20260504035504 63 0 0.0 0.0 0.00 0.00 0.00 78 1017.9
20260504035003 63 0 0.0 0.0 0.00 0.00 0.00 78 1017.9
20260504034503 63 0 0.0 0.0 0.00 0.00 0.00 77 1017.9
20260504034004 63 0 0.0 0.0 0.00 0.00 0.00 77 1017.9
20260504032503 64 0 0.0 0.0 0.00 0.00 0.00 77 1018.0
20260504032004 64 0 0.0 0.0 0.00 0.00 0.00 77 1017.9
20260504031504 64 0 0.0 0.0 0.00 0.00 0.00 77 1017.8
20260504030504 64 0 0.0 0.0 0.00 0.00 0.00 77 1017.9
20260504025503 65 0 0.0 0.0 0.00 0.00 0.00 77 1017.9
20260504025004 65 0 0.0 0.0 0.00 0.00 0.00 76 1017.8
20260504024504 65 0 0.0 0.0 0.00 0.00 0.00 76 1017.6
20260504023504 65 0 0.0 0.0 0.00 0.00 0.00 76 1017.5
20260504023003 65 0 0.0 0.0 0.00 0.00 0.00 75 1017.5
20260504022503 65 0 0.0 0.0 0.00 0.00 0.00 75 1017.4
20260504022004 65 0 0.0 0.0 0.00 0.00 0.00 75 1017.2
20260504021504 66 0 0.0 0.0 0.00 0.00 0.00 75 1017.3
20260504021004 66 0 0.0 0.0 0.00 0.00 0.00 74 1017.3
20260504020504 66 0 0.0 0.0 0.00 0.00 0.00 73 1017.4
20260504015504 66 0 0.0 0.0 0.00 0.00 0.00 73 1017.3
20260504014503 67 0 0.0 0.0 0.00 0.00 0.00 72 1017.3
20260504014004 67 0 0.0 0.0 0.00 0.00 0.00 71 1017.3
20260504013503 67 0 0.0 0.0 0.00 0.00 0.00 71 1017.2
20260504013004 68 0 0.0 0.0 0.00 0.00 0.00 70 1017.2
20260504012504 68 0 0.0 0.0 0.00 0.00 0.00 70 1017.2
20260504012004 69 0 0.0 0.0 0.00 0.00 0.00 70 1017.2
20260504011503 69 0 0.0 0.0 0.00 0.00 0.00 69 1017.3
20260504011004 69 0 0.0 0.0 0.00 0.00 0.00 68 1017.2
20260504010503 70 0 0.0 0.0 0.00 0.00 0.00 67 1017.2
20260504010004 70 0 0.0 0.0 0.00 0.00 0.00 67 1017.2
20260504005504 71 0 0.0 0.0 0.00 0.00 0.00 66 1017.3
20260504005004 71 0 0.0 0.0 0.00 0.00 0.00 66 1017.3
20260504004503 71 0 0.0 0.0 0.00 0.00 0.00 65 1017.2
20260504004003 71 0 0.0 0.0 0.00 0.00 0.00 65 1017.2
20260504003503 72 0 0.0 0.0 0.00 0.00 0.00 65 1017.2
20260504003003 72 0 0.0 0.0 0.00 0.00 0.00 64 1017.2
20260504002504 72 0 0.0 0.0 0.00 0.00 0.00 64 1017.2
20260504002004 73 0 0.0 0.0 0.00 0.00 0.00 63 1017.3
20260504001504 73 0 0.0 0.0 0.00 0.00 0.00 63 1017.3
20260504001004 73 0 0.0 0.0 0.00 0.00 0.00 63 1017.1
20260504000503 73 0 0.0 0.0 0.00 0.00 0.00 62 1017.2
20260504000004 74 0 0.0 0.0 0.00 0.00 0.00 61 1017.4
20260503235503 74 0 0.0 0.0 0.00 0.00 0.00 61 1017.4
20260503235004 74 0 0.0 0.0 0.00 0.00 0.00 61 1017.4
20260503234504 75 0 0.0 0.0 0.00 0.00 0.00 61 1017.4
20260503234003 75 0 0.0 0.0 0.00 0.00 0.00 61 1017.3
20260503233003 75 0 0.0 0.0 0.00 0.00 0.00 60 1017.2
20260503232004 76 0 0.0 0.0 0.00 0.00 0.00 60 1017.4
20260503231004 76 0 0.0 0.0 0.00 0.00 0.00 60 1017.5
20260503230504 76 0 0.0 0.0 0.00 0.00 0.00 60 1017.6
20260503230004 77 0 0.0 0.0 0.00 0.00 0.00 59 1017.6
20260503225503 77 0 0.0 0.0 0.00 0.00 0.00 60 1017.6
20260503225004 77 0 0.0 0.0 0.00 0.00 0.00 60 1017.6
20260503224504 78 0 0.0 0.0 0.00 0.00 0.00 60 1017.5
20260503224004 78 0 0.0 0.0 0.00 0.00 0.00 59 1017.6
20260503223503 78 0 0.0 0.0 0.00 0.00 0.00 61 1017.7
20260503223003 78 0 0.0 0.0 0.00 0.00 0.00 60 1017.8
20260503221504 78 0 0.0 0.0 0.00 0.00 0.00 60 1017.8
20260503221003 78 0 0.0 0.0 0.00 0.00 0.00 61 1017.9
20260503220503 78 0 0.0 0.0 0.00 0.00 0.00 60 1018.0
20260503220003 78 0 0.0 0.0 0.00 0.00 0.00 61 1018.0
20260503215503 78 0 0.0 0.0 0.00 0.00 0.00 61 1018.2
20260503215004 79 0 0.0 0.0 0.00 0.00 0.00 59 1018.1
20260503214503 79 0 0.0 0.0 0.00 0.00 0.00 60 1018.2
20260503214004 79 0 0.0 0.0 0.00 0.00 0.00 59 1018.4
20260503213504 79 0 0.0 0.0 0.00 0.00 0.00 59 1018.4
20260503213004 80 0 0.0 0.0 0.00 0.00 0.00 59 1018.5
20260503212503 80 0 0.0 0.0 0.00 0.00 0.00 59 1018.6
20260503212004 80 0 0.0 0.0 0.00 0.00 0.00 59 1018.7
20260503211503 80 0 0.0 0.0 0.00 0.00 0.00 60 1018.8
20260503211004 80 0 0.0 0.0 0.00 0.00 0.00 60 1018.8
20260503210505 80 0 0.0 0.0 0.00 0.00 0.00 59 1018.8
20260503210004 80 0 0.0 0.0 0.00 0.00 0.00 55 1018.9
20260503205004 80 0 0.0 0.0 0.00 0.00 0.00 57 1019.0
20260503204504 80 0 0.0 0.0 0.00 0.00 0.00 57 1019.1
20260503204003 81 0 0.0 0.0 0.00 0.00 0.00 56 1019.2
20260503203503 81 0 0.0 0.0 0.00 0.00 0.00 54 1019.3
20260503203004 81 0 0.0 0.0 0.00 0.00 0.00 51 1019.4
20260503202504 81 0 0.0 0.0 0.00 0.00 0.00 53 1019.5
20260503202004 81 0 0.0 0.0 0.00 0.00 0.00 52 1019.5
20260503201504 82 0 0.0 0.0 0.00 0.00 0.00 53 1019.6
20260503201004 82 0 0.0 0.0 0.00 0.00 0.00 56 1019.6
20260503200504 81 0 0.0 0.0 0.00 0.00 0.00 53 1019.6
20260503200004 81 0 0.0 0.0 0.00 0.00 0.00 50 1019.8
20260503195503 81 0 0.0 0.0 0.00 0.00 0.00 51 1019.8
20260503194503 81 0 0.0 0.0 0.00 0.00 0.00 49 1020.1
20260503194003 81 0 0.0 0.0 0.00 0.00 0.00 43 1020.2
20260503193504 82 0 0.0 0.0 0.00 0.00 0.00 46 1020.3
20260503193004 82 0 0.0 0.0 0.00 0.00 0.00 48 1020.2
20260503192503 82 0 0.0 0.0 0.00 0.00 0.00 48 1020.4
20260503192004 82 0 0.0 0.0 0.00 0.00 0.00 46 1020.4
20260503191504 81 0 0.0 0.0 0.00 0.00 0.00 47 1020.5
20260503191004 81 0 0.0 0.0 0.00 0.00 0.00 50 1020.6
20260503190504 81 0 0.0 0.0 0.00 0.00 0.00 48 1020.6
20260503190003 81 0 0.0 0.0 0.00 0.00 0.00 47 1020.8
20260503185504 81 0 0.0 0.0 0.00 0.00 0.00 49 1020.9
20260503184504 80 0 0.0 0.0 0.00 0.00 0.00 53 1020.9
20260503184003 80 0 0.0 0.0 0.00 0.00 0.00 47 1021.0
20260503183504 80 0 0.0 0.0 0.00 0.00 0.00 49 1021.1
20260503183004 80 0 0.0 0.0 0.00 0.00 0.00 50 1021.2
20260503182505 80 0 0.0 0.0 0.00 0.00 0.00 52 1021.3
20260503182005 80 0 0.0 0.0 0.00 0.00 0.00 49 1021.5
20260503181504 80 0 0.0 0.0 0.00 0.00 0.00 52 1021.6
20260503180004 80 0 0.0 0.0 0.00 0.00 0.00 50 1021.8
20260503175504 80 0 0.0 0.0 0.00 0.00 0.00 53 1021.8
20260503175004 79 0 0.0 0.0 0.00 0.00 0.00 53 1021.9
20260503174503 79 0 0.0 0.0 0.00 0.00 0.00 51 1022.0
20260503174004 79 0 0.0 0.0 0.00 0.00 0.00 56 1022.1
20260503173504 79 0 0.0 0.0 0.00 0.00 0.00 56 1022.2
20260503173004 79 0 0.0 0.0 0.00 0.00 0.00 56 1022.3
20260503172504 79 0 0.0 0.0 0.00 0.00 0.00 56 1022.4
20260503172003 78 0 0.0 0.0 0.00 0.00 0.00 56 1022.5
20260503171503 78 0 0.0 0.0 0.00 0.00 0.00 55 1022.5
20260503171004 78 0 0.0 0.0 0.00 0.00 0.00 57 1022.5
20260503170504 78 0 0.0 0.0 0.00 0.00 0.00 56 1022.6
20260503151004 72 0 0.0 0.0 0.00 0.00 0.00 74 1022.9
20260503150504 71 0 0.0 0.0 0.00 0.00 0.00 75 1022.8
20260503131003 59 0 0.0 0.0 0.00 0.00 0.00 88 1022.2